Time,TemperatureF,DewpointF,PressureIn,WindDirection,WindDirectionDegrees,WindSpeedMPH,WindSpeedGustMPH,Humidity,HourlyPrecipIn,Conditions,Clouds,dailyrainin,SoftwareType,DateUTC
2013-01-17 00:03:00,40.1,31.5,30.24,NNE,24,5.0,10.0,71,0.00,,---,0.00,VWS V14.01,2013-01-17 06:03:00,
2013-01-17 00:08:00,40.1,31.5,30.19,North,7,2.0,8.0,71,0.00,,---,0.00,VWS V14.01,2013-01-17 06:08:00,
2013-01-17 00:13:00,39.9,31.3,30.25,North,359,3.0,5.0,71,0.00,,---,0.00,VWS V14.01,2013-01-17 06:13:00,
2013-01-17 00:18:00,39.8,31.5,30.20,North,355,1.0,6.0,72,0.00,,---,0.00,VWS V14.01,2013-01-17 06:18:00,
2013-01-17 00:23:00,39.7,31.4,30.20,NNE,22,4.0,8.0,72,0.00,,---,0.00,VWS V14.01,2013-01-17 06:23:00,
2013-01-17 00:28:00,39.7,31.4,30.25,NNW,332,2.0,5.0,72,0.00,,---,0.00,VWS V14.01,2013-01-17 06:28:00,
2013-01-17 00:33:00,39.6,31.3,30.26,NNW,347,1.0,4.0,72,0.00,,---,0.00,VWS V14.01,2013-01-17 06:33:00,
2013-01-17 00:38:00,39.4,31.1,30.26,NNW,331,4.0,6.0,72,0.00,,---,0.00,VWS V14.01,2013-01-17 06:38:00,
2013-01-17 00:43:00,39.1,30.9,30.26,North,6,0.0,5.0,72,0.00,,---,0.00,VWS V14.01,2013-01-17 06:43:00,
2013-01-17 00:48:00,38.9,31.0,30.27,NNE,27,2.0,5.0,73,0.00,,---,0.00,VWS V14.01,2013-01-17 06:48:00,
2013-01-17 00:53:00,38.8,31.2,30.21,NNE,18,0.0,2.0,74,0.00,,---,0.00,VWS V14.01,2013-01-17 06:53:00,
2013-01-17 00:58:00,38.7,31.1,30.27,NNE,12,1.0,5.0,74,0.00,,---,0.00,VWS V14.01,2013-01-17 06:58:00,
2013-01-17 01:03:00,38.5,31.0,30.22,NNE,18,1.0,4.0,74,0.00,,---,0.00,VWS V14.01,2013-01-17 07:03:00,
2013-01-17 01:08:00,38.4,30.9,30.22,North,11,0.0,5.0,74,0.00,,---,0.00,VWS V14.01,2013-01-17 07:08:00,
2013-01-17 01:13:00,38.4,30.9,30.22,North,9,0.0,3.0,74,0.00,,---,0.00,VWS V14.01,2013-01-17 07:13:00,
2013-01-17 01:18:00,38.1,30.9,30.23,North,9,0.0,0.0,75,0.00,,---,0.00,VWS V14.01,2013-01-17 07:18:00,
2013-01-17 01:23:00,37.7,30.5,30.28,North,352,2.0,3.0,75,0.00,,---,0.00,VWS V14.01,2013-01-17 07:23:00,
2013-01-17 01:28:00,37.7,30.8,30.23,North,7,1.0,5.0,76,0.00,,---,0.00,VWS V14.01,2013-01-17 07:28:00,
2013-01-17 01:33:00,37.6,30.4,30.23,NW,317,0.0,3.0,75,0.00,,---,0.00,VWS V14.01,2013-01-17 07:33:00,
2013-01-17 01:38:00,37.6,30.4,30.23,NNW,338,0.0,3.0,75,0.00,,---,0.00,VWS V14.01,2013-01-17 07:38:00,
2013-01-17 01:43:00,37.5,30.3,30.24,NNW,345,0.0,3.0,75,0.00,,---,0.00,VWS V14.01,2013-01-17 07:43:00,
2013-01-17 01:48:00,37.4,30.5,30.24,NNE,24,0.0,1.0,76,0.00,,---,0.00,VWS V14.01,2013-01-17 07:48:00,
2013-01-17 01:53:00,37.3,30.4,30.29,NNE,24,0.0,1.0,76,0.00,,---,0.00,VWS V14.01,2013-01-17 07:53:00,
2013-01-17 01:58:00,36.7,29.9,30.25,NNE,24,0.0,1.0,76,0.00,,---,0.00,VWS V14.01,2013-01-17 07:58:00,
2013-01-17 02:03:00,36.6,30.1,30.30,NNE,24,0.0,0.0,77,0.00,,---,0.00,VWS V14.01,2013-01-17 08:03:00,
2013-01-17 02:08:00,36.5,30.0,30.30,NNE,24,0.0,1.0,77,0.00,,---,0.00,VWS V14.01,2013-01-17 08:08:00,
2013-01-17 02:13:00,36.1,29.9,30.31,NNE,24,0.0,1.0,78,0.00,,---,0.00,VWS V14.01,2013-01-17 08:13:00,
2013-01-17 02:18:00,35.8,29.6,30.31,NNE,24,0.0,0.0,78,0.00,,---,0.00,VWS V14.01,2013-01-17 08:18:00,
2013-01-17 02:23:00,35.1,29.3,30.26,NNE,24,0.0,0.0,79,0.00,,---,0.00,VWS V14.01,2013-01-17 08:23:00,
2013-01-17 02:28:00,34.4,28.9,30.31,NNE,24,0.0,0.0,80,0.00,,---,0.00,VWS V14.01,2013-01-17 08:28:00,
2013-01-17 02:33:00,34.3,29.1,30.26,NNE,24,0.0,0.0,81,0.00,,---,0.00,VWS V14.01,2013-01-17 08:33:00,
2013-01-17 02:38:00,34.6,29.4,30.32,NNE,24,0.0,1.0,81,0.00,,---,0.00,VWS V14.01,2013-01-17 08:38:00,
2013-01-17 02:43:00,34.6,29.4,30.32,NNE,24,0.0,2.0,81,0.00,,---,0.00,VWS V14.01,2013-01-17 08:43:00,
2013-01-17 02:47:00,34.7,29.8,30.33,NNE,24,0.0,1.0,82,0.00,,---,0.00,VWS V14.01,2013-01-17 08:47:00,
2013-01-17 02:52:00,34.7,29.5,30.27,NNE,24,0.0,0.0,81,0.00,,---,0.00,VWS V14.01,2013-01-17 08:52:00,
2013-01-17 02:57:00,34.8,29.9,30.27,NNE,24,0.0,0.0,82,0.00,,---,0.00,VWS V14.01,2013-01-17 08:57:00,
2013-01-17 03:02:00,34.7,29.5,30.27,NNE,24,0.0,1.0,81,0.00,,---,0.00,VWS V14.01,2013-01-17 09:02:00,
2013-01-17 03:07:00,34.4,29.2,30.33,NNW,332,3.0,3.0,81,0.00,,---,0.00,VWS V14.01,2013-01-17 09:07:00,
2013-01-17 03:12:00,34.3,29.4,30.28,NNW,332,0.0,1.0,82,0.00,,---,0.00,VWS V14.01,2013-01-17 09:12:00,
2013-01-17 03:17:00,34.2,29.3,30.33,NNW,332,0.0,0.0,82,0.00,,---,0.00,VWS V14.01,2013-01-17 09:17:00,
2013-01-17 03:22:00,33.8,29.2,30.28,NNW,332,0.0,0.0,83,0.00,,---,0.00,VWS V14.01,2013-01-17 09:22:00,
2013-01-17 03:27:00,33.9,29.3,30.34,NNW,332,0.0,1.0,83,0.00,,---,0.00,VWS V14.01,2013-01-17 09:27:00,
2013-01-17 03:32:00,34.1,29.5,30.34,NNW,332,0.0,2.0,83,0.00,,---,0.00,VWS V14.01,2013-01-17 09:32:00,
2013-01-17 03:37:00,34.3,29.7,30.34,NNW,332,1.0,2.0,83,0.00,,---,0.00,VWS V14.01,2013-01-17 09:37:00,
2013-01-17 03:42:00,34.4,29.8,30.34,NNW,332,0.0,2.0,83,0.00,,---,0.00,VWS V14.01,2013-01-17 09:42:00,
2013-01-17 03:47:00,34.1,29.2,30.29,NNW,332,2.0,2.0,82,0.00,,---,0.00,VWS V14.01,2013-01-17 09:47:00,
2013-01-17 03:52:00,34.1,29.5,30.30,NNW,328,1.0,2.0,83,0.00,,---,0.00,VWS V14.01,2013-01-17 09:52:00,
2013-01-17 03:57:00,34.0,29.4,30.35,NW,319,0.0,3.0,83,0.00,,---,0.00,VWS V14.01,2013-01-17 09:57:00,
2013-01-17 04:02:00,33.9,29.3,30.30,NW,319,0.0,1.0,83,0.00,,---,0.00,VWS V14.01,2013-01-17 10:02:00,
2013-01-17 04:07:00,33.7,29.1,30.30,NW,319,0.0,2.0,83,0.00,,---,0.00,VWS V14.01,2013-01-17 10:07:00,
2013-01-17 04:12:00,33.5,29.2,30.35,NW,317,0.0,2.0,84,0.00,,---,0.00,VWS V14.01,2013-01-17 10:12:00,
2013-01-17 04:17:00,33.6,29.3,30.30,NNW,345,2.0,3.0,84,0.00,,---,0.00,VWS V14.01,2013-01-17 10:17:00,
2013-01-17 04:22:00,33.5,29.2,30.30,NNW,345,0.0,2.0,84,0.00,,---,0.00,VWS V14.01,2013-01-17 10:22:00,
2013-01-17 04:27:00,33.6,29.6,30.35,NNW,336,0.0,4.0,85,0.00,,---,0.00,VWS V14.01,2013-01-17 10:27:00,
2013-01-17 04:32:00,33.6,29.3,30.31,NW,326,1.0,4.0,84,0.00,,---,0.00,VWS V14.01,2013-01-17 10:32:00,
2013-01-17 04:37:00,33.8,29.8,30.36,NNE,26,2.0,3.0,85,0.00,,---,0.00,VWS V14.01,2013-01-17 10:37:00,
2013-01-17 04:42:00,34.0,29.7,30.36,North,11,2.0,6.0,84,0.00,,---,0.00,VWS V14.01,2013-01-17 10:42:00,
2013-01-17 04:47:00,34.0,29.7,30.36,North,5,3.0,4.0,84,0.00,,---,0.00,VWS V14.01,2013-01-17 10:47:00,
2013-01-17 04:52:00,34.0,29.7,30.31,North,7,3.0,5.0,84,0.00,,---,0.00,VWS V14.01,2013-01-17 10:52:00,
2013-01-17 04:57:00,33.9,29.6,30.32,North,354,1.0,5.0,84,0.00,,---,0.00,VWS V14.01,2013-01-17 10:57:00,
2013-01-17 05:02:00,33.7,29.4,30.37,NNE,12,6.0,6.0,84,0.00,,---,0.00,VWS V14.01,2013-01-17 11:02:00,
2013-01-17 05:07:00,33.7,29.4,30.32,North,356,3.0,5.0,84,0.00,,---,0.00,VWS V14.01,2013-01-17 11:07:00,
2013-01-17 05:12:00,33.5,29.5,30.37,North,11,3.0,8.0,85,0.00,,---,0.00,VWS V14.01,2013-01-17 11:12:00,
2013-01-17 05:17:00,33.3,29.3,30.37,NNW,347,2.0,3.0,85,0.00,,---,0.00,VWS V14.01,2013-01-17 11:17:00,
2013-01-17 05:22:00,33.3,29.3,30.32,North,5,1.0,4.0,85,0.00,,---,0.00,VWS V14.01,2013-01-17 11:22:00,
2013-01-17 05:27:00,33.1,29.1,30.33,NNW,339,2.0,5.0,85,0.00,,---,0.00,VWS V14.01,2013-01-17 11:27:00,
2013-01-17 05:32:00,32.9,29.2,30.38,NNW,345,1.0,3.0,86,0.00,,---,0.00,VWS V14.01,2013-01-17 11:32:00,
2013-01-17 05:37:00,32.7,29.0,30.38,North,6,3.0,3.0,86,0.00,,---,0.00,VWS V14.01,2013-01-17 11:37:00,
2013-01-17 05:42:00,32.6,28.9,30.38,North,349,2.0,6.0,86,0.00,,---,0.00,VWS V14.01,2013-01-17 11:42:00,
2013-01-17 05:47:00,32.5,28.8,30.39,North,5,0.0,2.0,86,0.00,,---,0.00,VWS V14.01,2013-01-17 11:47:00,
2013-01-17 05:52:00,32.2,28.5,30.34,North,5,1.0,2.0,86,0.00,,---,0.00,VWS V14.01,2013-01-17 11:52:00,
2013-01-17 05:57:00,31.9,28.5,30.34,North,3,0.0,2.0,87,0.00,,---,0.00,VWS V14.01,2013-01-17 11:57:00,
2013-01-17 06:02:00,31.7,28.3,30.39,North,3,1.0,3.0,87,0.00,,---,0.00,VWS V14.01,2013-01-17 12:02:00,
2013-01-17 06:07:00,31.6,28.2,30.35,North,3,0.0,2.0,87,0.00,,---,0.00,VWS V14.01,2013-01-17 12:07:00,
2013-01-17 06:12:00,31.5,28.4,30.40,North,7,2.0,3.0,88,0.00,,---,0.00,VWS V14.01,2013-01-17 12:12:00,
2013-01-17 06:17:00,31.4,28.3,30.35,North,355,0.0,5.0,88,0.00,,---,0.00,VWS V14.01,2013-01-17 12:17:00,
2013-01-17 06:22:00,31.2,28.1,30.35,North,357,1.0,2.0,88,0.00,,---,0.00,VWS V14.01,2013-01-17 12:22:00,
2013-01-17 06:27:00,31.1,28.0,30.35,North,357,2.0,3.0,88,0.00,,---,0.00,VWS V14.01,2013-01-17 12:27:00,
2013-01-17 06:32:00,30.9,27.8,30.41,North,1,1.0,3.0,88,0.00,,---,0.00,VWS V14.01,2013-01-17 12:32:00,
2013-01-17 06:37:00,30.8,28.0,30.36,North,1,0.0,1.0,89,0.00,,---,0.00,VWS V14.01,2013-01-17 12:37:00,
2013-01-17 06:42:00,30.9,28.0,30.41,North,1,0.0,2.0,89,0.00,,---,0.00,VWS V14.01,2013-01-17 12:42:00,
2013-01-17 06:47:00,30.7,27.9,30.42,North,1,0.0,3.0,89,0.00,,---,0.00,VWS V14.01,2013-01-17 12:47:00,
2013-01-17 06:52:00,30.6,27.8,30.37,NE,36,0.0,2.0,89,0.00,,---,0.00,VWS V14.01,2013-01-17 12:52:00,
2013-01-17 06:57:00,30.6,27.8,30.37,NNE,16,0.0,3.0,89,0.00,,---,0.00,VWS V14.01,2013-01-17 12:57:00,
2013-01-17 07:02:00,30.5,27.6,30.42,NNE,22,3.0,5.0,89,0.00,,---,0.00,VWS V14.01,2013-01-17 13:02:00,
2013-01-17 07:07:00,30.5,27.6,30.41,NNE,16,1.0,3.0,89,0.00,,---,0.00,VWS V14.01,2013-01-17 13:07:00,
2013-01-17 07:12:00,30.6,27.5,30.37,NNW,344,2.0,5.0,88,0.00,,---,0.00,VWS V14.01,2013-01-17 13:12:00,
2013-01-17 07:17:00,30.5,27.4,30.37,NNW,345,0.0,2.0,88,0.00,,---,0.00,VWS V14.01,2013-01-17 13:17:00,
2013-01-17 07:22:00,30.5,27.4,30.37,NNE,13,2.0,2.0,88,0.00,,---,0.00,VWS V14.01,2013-01-17 13:22:00,
2013-01-17 07:27:00,30.4,27.3,30.37,NNE,14,0.0,1.0,88,0.00,,---,0.00,VWS V14.01,2013-01-17 13:27:00,
2013-01-17 07:32:00,30.3,27.2,30.42,NNE,16,1.0,3.0,88,0.00,,---,0.00,VWS V14.01,2013-01-17 13:32:00,
2013-01-17 07:37:00,30.2,27.4,30.42,NNE,16,0.0,1.0,89,0.00,,---,0.00,VWS V14.01,2013-01-17 13:37:00,
2013-01-17 07:42:00,29.8,27.0,30.37,NNE,16,0.0,0.0,89,0.00,,---,0.00,VWS V14.01,2013-01-17 13:42:00,
2013-01-17 07:47:00,29.7,26.9,30.42,NNE,16,0.0,1.0,89,0.00,,---,0.00,VWS V14.01,2013-01-17 13:47:00,
2013-01-17 07:52:00,29.7,26.9,30.38,NNE,16,0.0,0.0,89,0.00,,---,0.00,VWS V14.01,2013-01-17 13:52:00,
2013-01-17 07:57:00,29.6,26.8,30.38,NNE,16,0.0,0.0,89,0.00,,---,0.00,VWS V14.01,2013-01-17 13:57:00,
2013-01-17 08:02:00,29.4,26.8,30.38,NNE,16,0.0,0.0,90,0.00,,---,0.00,VWS V14.01,2013-01-17 14:02:00,
2013-01-17 08:07:00,29.2,26.6,30.43,NNE,16,0.0,0.0,90,0.00,,---,0.00,VWS V14.01,2013-01-17 14:07:00,
2013-01-17 08:12:00,29.4,26.8,30.38,NNE,16,0.0,0.0,90,0.00,,---,0.00,VWS V14.01,2013-01-17 14:12:00,
2013-01-17 08:17:00,29.2,26.6,30.44,NNW,340,0.0,1.0,90,0.00,,---,0.00,VWS V14.01,2013-01-17 14:17:00,
2013-01-17 08:22:00,29.3,26.7,30.39,NNW,340,0.0,0.0,90,0.00,,---,0.00,VWS V14.01,2013-01-17 14:22:00,
2013-01-17 08:27:00,29.5,26.9,30.40,NNW,340,0.0,0.0,90,0.00,,---,0.00,VWS V14.01,2013-01-17 14:27:00,
2013-01-17 08:32:00,29.9,27.3,30.45,NNW,340,0.0,0.0,90,0.00,,---,0.00,VWS V14.01,2013-01-17 14:32:00,
2013-01-17 08:37:00,30.5,27.9,30.45,NNW,340,0.0,2.0,90,0.00,,---,0.00,VWS V14.01,2013-01-17 14:37:00,
2013-01-17 08:42:00,31.2,28.3,30.40,North,358,1.0,2.0,89,0.00,,---,0.00,VWS V14.01,2013-01-17 14:42:00,
2013-01-17 08:47:00,31.7,28.6,30.41,North,5,3.0,3.0,88,0.00,,---,0.00,VWS V14.01,2013-01-17 14:47:00,
2013-01-17 08:52:00,32.1,28.7,30.41,North,5,0.0,3.0,87,0.00,,---,0.00,VWS V14.01,2013-01-17 14:52:00,
2013-01-17 08:57:00,32.5,28.8,30.41,North,5,3.0,3.0,86,0.00,,---,0.00,VWS V14.01,2013-01-17 14:57:00,
2013-01-17 09:02:00,33.0,29.0,30.46,North,5,1.0,2.0,85,0.00,,---,0.00,VWS V14.01,2013-01-17 15:02:00,
2013-01-17 09:07:00,33.4,28.8,30.46,North,5,2.0,3.0,83,0.00,,---,0.00,VWS V14.01,2013-01-17 15:07:00,
2013-01-17 09:12:00,33.3,28.7,30.47,NE,44,1.0,6.0,83,0.00,,---,0.00,VWS V14.01,2013-01-17 15:12:00,
2013-01-17 09:17:00,33.7,29.1,30.42,NNE,30,4.0,4.0,83,0.00,,---,0.00,VWS V14.01,2013-01-17 15:17:00,
2013-01-17 09:22:00,33.8,28.9,30.47,NNE,20,4.0,4.0,82,0.00,,---,0.00,VWS V14.01,2013-01-17 15:22:00,
2013-01-17 09:27:00,33.8,28.9,30.43,North,6,2.0,2.0,82,0.00,,---,0.00,VWS V14.01,2013-01-17 15:27:00,
2013-01-17 09:32:00,33.6,28.7,30.43,NE,37,3.0,8.0,82,0.00,,---,0.00,VWS V14.01,2013-01-17 15:32:00,
2013-01-17 09:37:00,33.8,29.2,30.44,NE,43,3.0,7.0,83,0.00,,---,0.00,VWS V14.01,2013-01-17 15:37:00,
2013-01-17 09:42:00,33.7,29.1,30.44,NNE,29,3.0,5.0,83,0.00,,---,0.00,VWS V14.01,2013-01-17 15:42:00,
2013-01-17 09:47:00,33.8,29.2,30.49,North,1,1.0,7.0,83,0.00,,---,0.00,VWS V14.01,2013-01-17 15:47:00,
2013-01-17 09:52:00,34.3,29.4,30.49,NNE,24,1.0,4.0,82,0.00,,---,0.00,VWS V14.01,2013-01-17 15:52:00,
2013-01-17 09:57:00,34.5,29.3,30.49,East,84,3.0,4.0,81,0.00,,---,0.00,VWS V14.01,2013-01-17 15:57:00,
2013-01-17 10:02:00,34.6,29.1,30.50,NNE,12,1.0,5.0,80,0.00,,---,0.00,VWS V14.01,2013-01-17 16:02:00,
2013-01-17 10:07:00,35.0,29.2,30.50,NE,34,2.0,5.0,79,0.00,,---,0.00,VWS V14.01,2013-01-17 16:07:00,
2013-01-17 10:12:00,34.9,29.1,30.50,NE,34,0.0,2.0,79,0.00,,---,0.00,VWS V14.01,2013-01-17 16:12:00,
2013-01-17 10:17:00,35.8,29.9,30.50,NE,34,0.0,2.0,79,0.00,,---,0.00,VWS V14.01,2013-01-17 16:17:00,
2013-01-17 10:22:00,36.2,30.0,30.51,NE,36,1.0,4.0,78,0.00,,---,0.00,VWS V14.01,2013-01-17 16:22:00,
2013-01-17 10:27:00,36.1,29.6,30.50,NNE,30,2.0,3.0,77,0.00,,---,0.00,VWS V14.01,2013-01-17 16:27:00,
2013-01-17 10:32:00,36.2,29.0,30.46,NNE,16,1.0,3.0,75,0.00,,---,0.00,VWS V14.01,2013-01-17 16:32:00,
2013-01-17 10:37:00,36.4,29.2,30.50,NNE,23,2.0,4.0,75,0.00,,---,0.00,VWS V14.01,2013-01-17 16:37:00,
2013-01-17 10:42:00,36.8,29.6,30.46,NNE,16,3.0,3.0,75,0.00,,---,0.00,VWS V14.01,2013-01-17 16:42:00,
2013-01-17 10:46:00,37.3,29.5,30.51,NE,36,2.0,3.0,73,0.00,,---,0.00,VWS V14.01,2013-01-17 16:46:00,
2013-01-17 10:51:00,37.3,29.5,30.46,NNE,17,1.0,2.0,73,0.00,,---,0.00,VWS V14.01,2013-01-17 16:51:00,
2013-01-17 10:56:00,37.8,29.3,30.51,NNE,29,0.0,6.0,71,0.00,,---,0.00,VWS V14.01,2013-01-17 16:56:00,
2013-01-17 11:01:00,37.8,29.3,30.46,NNE,28,2.0,4.0,71,0.00,,---,0.00,VWS V14.01,2013-01-17 17:01:00,
2013-01-17 11:06:00,38.1,29.9,30.50,NNE,30,2.0,4.0,72,0.00,,---,0.00,VWS V14.01,2013-01-17 17:06:00,
2013-01-17 11:11:00,38.3,29.4,30.45,North,358,2.0,2.0,70,0.00,,---,0.00,VWS V14.01,2013-01-17 17:11:00,
2013-01-17 11:16:00,38.4,29.1,30.45,NNE,15,0.0,2.0,69,0.00,,---,0.00,VWS V14.01,2013-01-17 17:16:00,
2013-01-17 11:21:00,38.7,29.8,30.49,NNE,28,3.0,5.0,70,0.00,,---,0.00,VWS V14.01,2013-01-17 17:21:00,
2013-01-17 11:26:00,38.9,30.0,30.49,NNE,25,1.0,4.0,70,0.00,,---,0.00,VWS V14.01,2013-01-17 17:26:00,
2013-01-17 11:31:00,39.3,29.6,30.44,NNE,25,1.0,4.0,68,0.00,,---,0.00,VWS V14.01,2013-01-17 17:31:00,
2013-01-17 11:36:00,39.1,29.5,30.49,NNE,25,2.0,3.0,68,0.00,,---,0.00,VWS V14.01,2013-01-17 17:36:00,
2013-01-17 11:41:00,39.1,29.8,30.49,NNE,25,1.0,2.0,69,0.00,,---,0.00,VWS V14.01,2013-01-17 17:41:00,
2013-01-17 11:46:00,39.5,29.8,30.44,NNE,25,1.0,1.0,68,0.00,,---,0.00,VWS V14.01,2013-01-17 17:46:00,
2013-01-17 11:51:00,40.2,30.1,30.48,NNE,32,1.0,5.0,67,0.00,,---,0.00,VWS V14.01,2013-01-17 17:51:00,
2013-01-17 11:56:00,40.8,30.0,30.43,North,350,0.0,2.0,65,0.00,,---,0.00,VWS V14.01,2013-01-17 17:56:00,
2013-01-17 12:01:00,41.5,30.6,30.43,North,349,1.0,1.0,65,0.00,,---,0.00,VWS V14.01,2013-01-17 18:01:00,
2013-01-17 12:06:00,41.1,29.9,30.43,North,351,0.0,7.0,64,0.00,,---,0.00,VWS V14.01,2013-01-17 18:06:00,
2013-01-17 12:11:00,41.3,30.4,30.48,NNE,20,3.0,7.0,65,0.00,,---,0.00,VWS V14.01,2013-01-17 18:11:00,
2013-01-17 12:16:00,41.4,30.5,30.48,NNE,27,3.0,3.0,65,0.00,,---,0.00,VWS V14.01,2013-01-17 18:16:00,
2013-01-17 12:21:00,41.8,30.9,30.43,NNE,32,1.0,2.0,65,0.00,,---,0.00,VWS V14.01,2013-01-17 18:21:00,
2013-01-17 12:26:00,42.1,30.8,30.47,NE,39,1.0,2.0,64,0.00,,---,0.00,VWS V14.01,2013-01-17 18:26:00,
2013-01-17 12:31:00,42.9,31.2,30.42,North,357,0.0,1.0,63,0.00,,---,0.00,VWS V14.01,2013-01-17 18:31:00,
2013-01-17 12:36:00,43.1,30.6,30.47,NE,36,0.0,3.0,61,0.00,,---,0.00,VWS V14.01,2013-01-17 18:36:00,
2013-01-17 12:41:00,43.0,30.5,30.47,NNE,25,3.0,7.0,61,0.00,,---,0.00,VWS V14.01,2013-01-17 18:41:00,
2013-01-17 12:46:00,43.3,30.4,30.42,NNW,347,1.0,1.0,60,0.00,,---,0.00,VWS V14.01,2013-01-17 18:46:00,
2013-01-17 12:51:00,43.4,30.9,30.46,NNE,21,1.0,3.0,61,0.00,,---,0.00,VWS V14.01,2013-01-17 18:51:00,
2013-01-17 12:56:00,43.6,30.2,30.42,NNE,30,0.0,4.0,59,0.00,,---,0.00,VWS V14.01,2013-01-17 18:56:00,
2013-01-17 13:01:00,44.6,31.2,30.46,NNE,30,2.0,2.0,59,0.00,,---,0.00,VWS V14.01,2013-01-17 19:01:00,
2013-01-17 13:06:00,44.2,30.4,30.46,NNE,25,2.0,2.0,58,0.00,,---,0.00,VWS V14.01,2013-01-17 19:06:00,
2013-01-17 13:11:00,44.0,30.2,30.45,NNE,26,0.0,1.0,58,0.00,,---,0.00,VWS V14.01,2013-01-17 19:11:00,
2013-01-17 13:16:00,44.7,30.9,30.45,NNE,26,1.0,1.0,58,0.00,,---,0.00,VWS V14.01,2013-01-17 19:16:00,
2013-01-17 13:21:00,45.3,30.5,30.41,NNW,339,0.0,0.0,56,0.00,,---,0.00,VWS V14.01,2013-01-17 19:21:00,
2013-01-17 13:26:00,46.2,31.4,30.44,NNW,339,0.0,2.0,56,0.00,,---,0.00,VWS V14.01,2013-01-17 19:26:00,
2013-01-17 13:31:00,45.9,30.7,30.40,NNW,331,0.0,2.0,55,0.00,,---,0.00,VWS V14.01,2013-01-17 19:31:00,
2013-01-17 13:36:00,46.0,30.3,30.44,NNW,332,0.0,2.0,54,0.00,,---,0.00,VWS V14.01,2013-01-17 19:36:00,
2013-01-17 13:41:00,46.5,30.3,30.44,NW,326,0.0,1.0,53,0.00,,---,0.00,VWS V14.01,2013-01-17 19:41:00,
2013-01-17 13:46:00,46.3,30.1,30.43,NW,326,0.0,1.0,53,0.00,,---,0.00,VWS V14.01,2013-01-17 19:46:00,
2013-01-17 13:51:00,47.0,30.3,30.39,North,350,1.0,1.0,52,0.00,,---,0.00,VWS V14.01,2013-01-17 19:51:00,
2013-01-17 13:56:00,46.7,30.5,30.43,North,350,0.0,1.0,53,0.00,,---,0.00,VWS V14.01,2013-01-17 19:56:00,
2013-01-17 14:01:00,46.4,30.7,30.43,NE,53,0.0,4.0,54,0.00,,---,0.00,VWS V14.01,2013-01-17 20:01:00,
2013-01-17 14:06:00,47.2,31.4,30.38,NNE,18,0.0,1.0,54,0.00,,---,0.00,VWS V14.01,2013-01-17 20:06:00,
2013-01-17 14:11:00,48.2,31.9,30.38,NNW,332,1.0,1.0,53,0.00,,---,0.00,VWS V14.01,2013-01-17 20:11:00,
2013-01-17 14:16:00,47.8,31.5,30.42,NNW,342,0.0,1.0,53,0.00,,---,0.00,VWS V14.01,2013-01-17 20:16:00,
2013-01-17 14:21:00,47.8,31.5,30.38,SW,229,0.0,1.0,53,0.00,,---,0.00,VWS V14.01,2013-01-17 20:21:00,
2013-01-17 14:26:00,48.5,32.2,30.38,WNW,287,1.0,2.0,53,0.00,,---,0.00,VWS V14.01,2013-01-17 20:26:00,
2013-01-17 14:31:00,48.9,32.5,30.38,WNW,285,2.0,3.0,53,0.00,,---,0.00,VWS V14.01,2013-01-17 20:31:00,
2013-01-17 14:36:00,49.1,32.2,30.37,WNW,287,0.0,1.0,52,0.00,,---,0.00,VWS V14.01,2013-01-17 20:36:00,
2013-01-17 14:41:00,48.7,32.3,30.42,WNW,287,1.0,2.0,53,0.00,,---,0.00,VWS V14.01,2013-01-17 20:41:00,
2013-01-17 14:46:00,48.2,31.9,30.42,WNW,287,0.0,3.0,53,0.00,,---,0.00,VWS V14.01,2013-01-17 20:46:00,
2013-01-17 14:51:00,48.0,32.6,30.42,WNW,288,0.0,1.0,55,0.00,,---,0.00,VWS V14.01,2013-01-17 20:51:00,
2013-01-17 14:56:00,49.0,33.1,30.38,North,352,2.0,2.0,54,0.00,,---,0.00,VWS V14.01,2013-01-17 20:56:00,
2013-01-17 15:01:00,48.6,32.3,30.42,NNE,22,1.0,3.0,53,0.00,,---,0.00,VWS V14.01,2013-01-17 21:01:00,
2013-01-17 15:06:00,48.9,32.1,30.38,North,7,0.0,0.0,52,0.00,,---,0.00,VWS V14.01,2013-01-17 21:06:00,
2013-01-17 15:11:00,49.3,32.9,30.42,North,7,0.0,2.0,53,0.00,,---,0.00,VWS V14.01,2013-01-17 21:11:00,
2013-01-17 15:16:00,49.3,32.4,30.42,WNW,295,0.0,2.0,52,0.00,,---,0.00,VWS V14.01,2013-01-17 21:16:00,
2013-01-17 15:21:00,48.9,32.1,30.42,North,1,1.0,1.0,52,0.00,,---,0.00,VWS V14.01,2013-01-17 21:21:00,
2013-01-17 15:26:00,49.0,33.1,30.38,WSW,250,1.0,1.0,54,0.00,,---,0.00,VWS V14.01,2013-01-17 21:26:00,
2013-01-17 15:31:00,48.6,32.7,30.42,NNE,21,0.0,1.0,54,0.00,,---,0.00,VWS V14.01,2013-01-17 21:31:00,
2013-01-17 15:36:00,49.4,33.0,30.42,SE,126,0.0,2.0,53,0.00,,---,0.00,VWS V14.01,2013-01-17 21:36:00,
2013-01-17 15:41:00,49.2,32.8,30.42,West,259,1.0,2.0,53,0.00,,---,0.00,VWS V14.01,2013-01-17 21:41:00,
2013-01-17 15:46:00,48.9,32.5,30.43,WSW,240,1.0,4.0,53,0.00,,---,0.00,VWS V14.01,2013-01-17 21:46:00,
2013-01-17 15:51:00,48.8,32.9,30.42,South,172,0.0,3.0,54,0.00,,---,0.00,VWS V14.01,2013-01-17 21:51:00,
2013-01-17 15:56:00,48.8,32.4,30.42,SSE,159,0.0,4.0,53,0.00,,---,0.00,VWS V14.01,2013-01-17 21:56:00,
2013-01-17 16:01:00,48.8,32.9,30.38,SSW,213,0.0,1.0,54,0.00,,---,0.00,VWS V14.01,2013-01-17 22:01:00,
2013-01-17 16:06:00,48.7,32.8,30.42,WSW,244,0.0,3.0,54,0.00,,---,0.00,VWS V14.01,2013-01-17 22:06:00,
2013-01-17 16:11:00,48.6,32.7,30.42,WSW,244,0.0,3.0,54,0.00,,---,0.00,VWS V14.01,2013-01-17 22:11:00,
2013-01-17 16:16:00,48.7,33.3,30.39,SW,224,2.0,2.0,55,0.00,,---,0.00,VWS V14.01,2013-01-17 22:16:00,
2013-01-17 16:21:00,48.7,33.3,30.42,SW,224,2.0,2.0,55,0.00,,---,0.00,VWS V14.01,2013-01-17 22:21:00,
2013-01-17 16:26:00,48.7,33.3,30.39,SW,224,0.0,0.0,55,0.00,,---,0.00,VWS V14.01,2013-01-17 22:26:00,
2013-01-17 16:31:00,48.5,33.1,30.39,NW,307,0.0,0.0,55,0.00,,---,0.00,VWS V14.01,2013-01-17 22:31:00,
2013-01-17 16:36:00,48.1,33.2,30.42,NW,307,0.0,1.0,56,0.00,,---,0.00,VWS V14.01,2013-01-17 22:36:00,
2013-01-17 16:41:00,47.7,33.2,30.39,NW,307,0.0,0.0,57,0.00,,---,0.00,VWS V14.01,2013-01-17 22:41:00,
2013-01-17 16:46:00,47.7,33.2,30.42,NW,307,0.0,1.0,57,0.00,,---,0.00,VWS V14.01,2013-01-17 22:46:00,
2013-01-17 16:51:00,47.4,33.0,30.39,NW,307,0.0,0.0,57,0.00,,---,0.00,VWS V14.01,2013-01-17 22:51:00,
2013-01-17 16:56:00,47.4,33.0,30.43,NW,307,0.0,1.0,57,0.00,,---,0.00,VWS V14.01,2013-01-17 22:56:00,
2013-01-17 17:01:00,47.3,32.8,30.39,NW,307,1.0,1.0,57,0.00,,---,0.00,VWS V14.01,2013-01-17 23:01:00,
2013-01-17 17:06:00,47.0,33.0,30.39,NW,307,0.0,0.0,58,0.00,,---,0.00,VWS V14.01,2013-01-17 23:06:00,
2013-01-17 17:11:00,46.5,33.0,30.39,NW,307,0.0,0.0,59,0.00,,---,0.00,VWS V14.01,2013-01-17 23:11:00,
2013-01-17 17:16:00,46.1,32.6,30.39,NW,307,0.0,0.0,59,0.00,,---,0.00,VWS V14.01,2013-01-17 23:16:00,
2013-01-17 17:21:00,46.0,32.9,30.39,NW,307,0.0,0.0,60,0.00,,---,0.00,VWS V14.01,2013-01-17 23:21:00,
2013-01-17 17:26:00,45.8,32.7,30.38,NW,307,0.0,0.0,60,0.00,,---,0.00,VWS V14.01,2013-01-17 23:26:00,
2013-01-17 17:31:00,45.6,32.9,30.38,NW,307,0.0,0.0,61,0.00,,---,0.00,VWS V14.01,2013-01-17 23:31:00,
2013-01-17 17:36:00,45.1,32.5,30.38,NW,307,0.0,0.0,61,0.00,,---,0.00,VWS V14.01,2013-01-17 23:36:00,
2013-01-17 17:41:00,44.2,32.0,30.43,NW,307,0.0,0.0,62,0.00,,---,0.00,VWS V14.01,2013-01-17 23:41:00,
2013-01-17 17:46:00,42.8,31.5,30.39,NW,307,0.0,0.0,64,0.00,,---,0.00,VWS V14.01,2013-01-17 23:46:00,
2013-01-17 17:51:00,42.6,32.0,30.43,NW,307,0.0,0.0,66,0.00,,---,0.00,VWS V14.01,2013-01-17 23:51:00,
2013-01-17 17:56:00,42.6,32.0,30.43,NW,307,0.0,0.0,66,0.00,,---,0.00,VWS V14.01,2013-01-17 23:56:00,
2013-01-17 18:01:00,42.3,31.8,30.39,NW,307,0.0,0.0,66,0.00,,---,0.00,VWS V14.01,2013-01-18 00:01:00,
2013-01-17 18:05:00,41.7,31.9,30.43,NW,307,0.0,0.0,68,0.00,,---,0.00,VWS V14.01,2013-01-18 00:05:00,
2013-01-17 18:10:00,41.1,31.7,30.39,NW,307,0.0,0.0,69,0.00,,---,0.00,VWS V14.01,2013-01-18 00:10:00,
2013-01-17 18:15:00,40.1,30.8,30.39,NW,307,0.0,0.0,69,0.00,,---,0.00,VWS V14.01,2013-01-18 00:15:00,
2013-01-17 18:20:00,39.6,31.0,30.43,NW,307,0.0,0.0,71,0.00,,---,0.00,VWS V14.01,2013-01-18 00:20:00,
2013-01-17 18:25:00,39.4,31.1,30.39,NW,307,0.0,0.0,72,0.00,,---,0.00,VWS V14.01,2013-01-18 00:25:00,
2013-01-17 18:30:00,38.9,31.0,30.39,NW,307,0.0,0.0,73,0.00,,---,0.00,VWS V14.01,2013-01-18 00:30:00,
2013-01-17 18:35:00,38.7,30.8,30.43,NW,307,0.0,0.0,73,0.00,,---,0.00,VWS V14.01,2013-01-18 00:35:00,
2013-01-17 18:40:00,38.0,30.1,30.38,NW,307,0.0,1.0,73,0.00,,---,0.00,VWS V14.01,2013-01-18 00:40:00,
2013-01-17 18:45:00,37.1,29.9,30.38,NW,307,0.0,0.0,75,0.00,,---,0.00,VWS V14.01,2013-01-18 00:45:00,
2013-01-17 18:50:00,36.6,29.8,30.38,NW,307,0.0,0.0,76,0.00,,---,0.00,VWS V14.01,2013-01-18 00:50:00,
2013-01-17 18:55:00,36.3,29.8,30.39,NW,307,0.0,0.0,77,0.00,,---,0.00,VWS V14.01,2013-01-18 00:55:00,
2013-01-17 19:00:00,36.1,29.6,30.38,NW,307,0.0,0.0,77,0.00,,---,0.00,VWS V14.01,2013-01-18 01:00:00,
2013-01-17 19:05:00,35.7,29.2,30.43,NW,307,0.0,0.0,77,0.00,,---,0.00,VWS V14.01,2013-01-18 01:05:00,
2013-01-17 19:10:00,35.3,28.8,30.43,NW,307,0.0,0.0,77,0.00,,---,0.00,VWS V14.01,2013-01-18 01:10:00,
2013-01-17 19:15:00,35.1,28.6,30.38,NW,307,0.0,0.0,77,0.00,,---,0.00,VWS V14.01,2013-01-18 01:15:00,
2013-01-17 19:20:00,34.8,28.6,30.39,NW,307,0.0,0.0,78,0.00,,---,0.00,VWS V14.01,2013-01-18 01:20:00,
2013-01-17 19:25:00,34.1,28.0,30.43,NW,307,0.0,0.0,78,0.00,,---,0.00,VWS V14.01,2013-01-18 01:25:00,
2013-01-17 19:30:00,33.7,27.9,30.39,NW,307,0.0,1.0,79,0.00,,---,0.00,VWS V14.01,2013-01-18 01:30:00,
2013-01-17 19:35:00,33.5,28.0,30.39,NW,307,0.0,1.0,80,0.00,,---,0.00,VWS V14.01,2013-01-18 01:35:00,
2013-01-17 19:40:00,33.4,28.2,30.39,NW,307,0.0,0.0,81,0.00,,---,0.00,VWS V14.01,2013-01-18 01:40:00,
2013-01-17 19:45:00,33.3,28.1,30.39,NW,307,1.0,1.0,81,0.00,,---,0.00,VWS V14.01,2013-01-18 01:45:00,
2013-01-17 19:50:00,33.0,27.8,30.44,NW,307,0.0,0.0,81,0.00,,---,0.00,VWS V14.01,2013-01-18 01:50:00,
2013-01-17 19:55:00,32.8,27.6,30.39,NW,307,0.0,0.0,81,0.00,,---,0.00,VWS V14.01,2013-01-18 01:55:00,
2013-01-17 20:00:00,32.5,27.6,30.44,NW,307,0.0,0.0,82,0.00,,---,0.00,VWS V14.01,2013-01-18 02:00:00,
2013-01-17 20:05:00,32.5,27.6,30.39,NW,307,0.0,0.0,82,0.00,,---,0.00,VWS V14.01,2013-01-18 02:05:00,
2013-01-17 20:10:00,32.5,27.6,30.44,NW,307,0.0,0.0,82,0.00,,---,0.00,VWS V14.01,2013-01-18 02:10:00,
2013-01-17 20:15:00,32.3,27.7,30.44,NW,307,0.0,0.0,83,0.00,,---,0.00,VWS V14.01,2013-01-18 02:15:00,
2013-01-17 20:20:00,31.7,27.1,30.44,NW,307,0.0,0.0,83,0.00,,---,0.00,VWS V14.01,2013-01-18 02:20:00,
2013-01-17 20:25:00,31.4,26.8,30.44,NW,307,0.0,0.0,83,0.00,,---,0.00,VWS V14.01,2013-01-18 02:25:00,
2013-01-17 20:30:00,31.2,26.6,30.39,NW,307,0.0,0.0,83,0.00,,---,0.00,VWS V14.01,2013-01-18 02:30:00,
2013-01-17 20:35:00,31.0,26.7,30.44,NW,307,0.0,0.0,84,0.00,,---,0.00,VWS V14.01,2013-01-18 02:35:00,
2013-01-17 20:40:00,31.0,27.0,30.44,NW,307,0.0,1.0,85,0.00,,---,0.00,VWS V14.01,2013-01-18 02:40:00,
2013-01-17 20:45:00,31.1,27.1,30.39,NW,307,0.0,0.0,85,0.00,,---,0.00,VWS V14.01,2013-01-18 02:45:00,
2013-01-17 20:50:00,31.0,27.3,30.39,NW,307,0.0,1.0,86,0.00,,---,0.00,VWS V14.01,2013-01-18 02:50:00,
2013-01-17 20:55:00,30.7,27.0,30.39,NW,307,0.0,1.0,86,0.00,,---,0.00,VWS V14.01,2013-01-18 02:55:00,
2013-01-17 21:00:00,30.7,27.0,30.39,NW,307,0.0,0.0,86,0.00,,---,0.00,VWS V14.01,2013-01-18 03:00:00,
2013-01-17 21:05:00,30.8,27.1,30.39,NW,307,0.0,0.0,86,0.00,,---,0.00,VWS V14.01,2013-01-18 03:05:00,
2013-01-17 21:10:00,30.8,27.1,30.39,NW,307,0.0,0.0,86,0.00,,---,0.00,VWS V14.01,2013-01-18 03:10:00,
2013-01-17 21:15:00,30.9,27.2,30.43,NW,307,0.0,0.0,86,0.00,,---,0.00,VWS V14.01,2013-01-18 03:15:00,
2013-01-17 21:20:00,30.7,27.0,30.43,NW,307,0.0,0.0,86,0.00,,---,0.00,VWS V14.01,2013-01-18 03:20:00,
2013-01-17 21:25:00,31.0,27.6,30.43,NW,307,0.0,0.0,87,0.00,,---,0.00,VWS V14.01,2013-01-18 03:25:00,
2013-01-17 21:30:00,31.4,27.7,30.38,NW,307,0.0,0.0,86,0.00,,---,0.00,VWS V14.01,2013-01-18 03:30:00,
2013-01-17 21:35:00,31.2,27.2,30.38,NW,307,0.0,0.0,85,0.00,,---,0.00,VWS V14.01,2013-01-18 03:35:00,
2013-01-17 21:40:00,30.6,26.6,30.43,NW,307,0.0,0.0,85,0.00,,---,0.00,VWS V14.01,2013-01-18 03:40:00,
2013-01-17 21:45:00,30.0,26.3,30.38,NW,307,0.0,0.0,86,0.00,,---,0.00,VWS V14.01,2013-01-18 03:45:00,
2013-01-17 21:50:00,29.8,26.1,30.42,NW,307,0.0,0.0,86,0.00,,---,0.00,VWS V14.01,2013-01-18 03:50:00,
2013-01-17 21:55:00,30.0,26.3,30.43,NW,307,0.0,0.0,86,0.00,,---,0.00,VWS V14.01,2013-01-18 03:55:00,
2013-01-17 22:00:00,29.9,26.2,30.37,NW,307,0.0,0.0,86,0.00,,---,0.00,VWS V14.01,2013-01-18 04:00:00,
2013-01-17 22:05:00,29.9,26.2,30.42,NW,307,0.0,0.0,86,0.00,,---,0.00,VWS V14.01,2013-01-18 04:05:00,
2013-01-17 22:10:00,30.0,26.3,30.42,NW,307,0.0,0.0,86,0.00,,---,0.00,VWS V14.01,2013-01-18 04:10:00,
2013-01-17 22:15:00,29.7,26.0,30.42,NW,307,0.0,0.0,86,0.00,,---,0.00,VWS V14.01,2013-01-18 04:15:00,
2013-01-17 22:20:00,29.5,25.8,30.37,NW,307,0.0,0.0,86,0.00,,---,0.00,VWS V14.01,2013-01-18 04:20:00,
2013-01-17 22:25:00,29.2,25.5,30.37,NW,307,0.0,0.0,86,0.00,,---,0.00,VWS V14.01,2013-01-18 04:25:00,
2013-01-17 22:30:00,29.2,25.8,30.42,NW,307,0.0,0.0,87,0.00,,---,0.00,VWS V14.01,2013-01-18 04:30:00,
2013-01-17 22:35:00,28.9,25.5,30.37,NW,307,0.0,0.0,87,0.00,,---,0.00,VWS V14.01,2013-01-18 04:35:00,
2013-01-17 22:40:00,28.7,25.3,30.42,NW,307,0.0,0.0,87,0.00,,---,0.00,VWS V14.01,2013-01-18 04:40:00,
2013-01-17 22:45:00,28.8,25.4,30.42,NW,307,0.0,0.0,87,0.00,,---,0.00,VWS V14.01,2013-01-18 04:45:00,
2013-01-17 22:50:00,28.7,25.3,30.42,NW,307,0.0,0.0,87,0.00,,---,0.00,VWS V14.01,2013-01-18 04:50:00,
2013-01-17 22:55:00,28.4,25.0,30.37,NW,307,0.0,0.0,87,0.00,,---,0.00,VWS V14.01,2013-01-18 04:55:00,
2013-01-17 23:00:00,28.4,25.3,30.37,NW,307,0.0,0.0,88,0.00,,---,0.00,VWS V14.01,2013-01-18 05:00:00,
2013-01-17 23:01:00,28.5,25.4,30.37,NW,307,0.0,0.0,88,0.00,,---,0.00,VWS V14.01,2013-01-18 05:01:00,
2013-01-17 23:02:00,28.6,25.5,30.42,NW,307,0.0,0.0,88,0.00,,---,0.00,VWS V14.01,2013-01-18 05:02:00,
2013-01-17 23:07:00,28.9,25.8,30.37,NW,307,0.0,0.0,88,0.00,,---,0.00,VWS V14.01,2013-01-18 05:07:00,
2013-01-17 23:12:00,28.8,25.7,30.37,NW,307,0.0,0.0,88,0.00,,---,0.00,VWS V14.01,2013-01-18 05:12:00,
2013-01-17 23:17:00,29.1,26.0,30.41,NW,307,0.0,0.0,88,0.00,,---,0.00,VWS V14.01,2013-01-18 05:17:00,
2013-01-17 23:22:00,29.2,25.8,30.41,NW,307,0.0,0.0,87,0.00,,---,0.00,VWS V14.01,2013-01-18 05:22:00,
2013-01-17 23:27:00,28.5,25.1,30.41,NW,307,0.0,0.0,87,0.00,,---,0.00,VWS V14.01,2013-01-18 05:27:00,
2013-01-17 23:32:00,28.1,24.7,30.41,NW,307,0.0,0.0,87,0.00,,---,0.00,VWS V14.01,2013-01-18 05:32:00,
2013-01-17 23:37:00,28.3,25.2,30.37,NW,307,0.0,0.0,88,0.00,,---,0.00,VWS V14.01,2013-01-18 05:37:00,
2013-01-17 23:42:00,28.3,25.2,30.41,NW,307,0.0,0.0,88,0.00,,---,0.00,VWS V14.01,2013-01-18 05:42:00,
2013-01-17 23:47:00,28.2,25.1,30.36,NW,307,0.0,0.0,88,0.00,,---,0.00,VWS V14.01,2013-01-18 05:47:00,
2013-01-17 23:52:00,28.7,25.6,30.41,NW,307,0.0,0.0,88,0.00,,---,0.00,VWS V14.01,2013-01-18 05:52:00,
2013-01-17 23:57:00,29.0,25.9,30.37,NW,307,0.0,0.0,88,0.00,,---,0.00,VWS V14.01,2013-01-18 05:57:00,